Notices

What's New in latest Release from April 7th, 2021:

- Updated Glossary, including Speed of Maximum Gust, and Total Hourly Precipitation

- Updated national and regional climate services offices contacts and prices information

- Addition of station inventory lists for 1981-2010, 1971-2000, and 1961-1990 Normals.

If you haven't already, please take our survey and provide feedback about our website: https://eccc.sondage-survey.ca/f/LanguageSelection.aspx?s=442ca660-fcf1-47c0-95a9-59707d6fd709

Hourly Data Report for April 13, 2021

WIARTON A
ONTARIO
Current Station Operator: NAVCAN

44°44'39.000" N
81°06'31.000" W
221.90 m
6119499
71633
YVV

Download Data

Hourly Data (April 2021)
Hourly Data Report for April 13, 2021
TIME
LST
Temp Definition
°C
Dew Point Definition
°C
Rel Hum Definition
%
Precip. Amount Definition
mm

Wind Dir Definition
10's deg

Wind Spd Definition
km/h
Visibility Definition
km
Stn Press Definition
kPa
Hmdx Definition


Wind Chill Definition


Weather Definition


00:00 7.5 7.0 96   13 5 24.1 98.64     LegendNANA
01:00 7.4 6.7 96   18 7 24.1 98.63     Clear
02:00 8.1 7.3 95   16 10 9.7 98.65     Fog
03:00 8.2 7.4 95   15 13 8.1 98.69     Fog
04:00 8.3 7.5 95   16 14 8.1 98.72     Fog
05:00 8.2 7.6 96   16 16 4.8 98.78     Drizzle,Fog
06:00 8.2 7.7 97   17 15 4.8 98.83     Rain,Fog
07:00 8.7 8.1 96   20 17 4.8 98.88     Rain,Fog
08:00 8.3 7.2 93   22 19 8.1 98.93     Rain,Fog
09:00 8.2 6.8 91   23 14 8.1 98.98     Fog
10:00 9.3 5.9 79   27 16 24.1 99.02     Mostly Cloudy
11:00 10.3 4.0 65   25 20 24.1 99.07     LegendNANA
12:00 11.2 2.9 56   26 13 24.1 99.08     LegendNANA
13:00 11.9 1.1 47   24 16 24.1 99.08     Mainly Clear
14:00 12.7 -0.4 40   27 17 24.1 99.06     LegendNANA
15:00 13.5 -2.5 33   26 17 24.1 99.04     LegendNANA
16:00 13.8 -0.4 38   23 17 24.1 99.06     Clear
17:00 13.8 -0.8 36   23 12 24.1 99.03     LegendNANA
18:00 13.2 0.4 41   28 4 24.1 99.02     LegendNANA
19:00 12.2 0.8 46   36 3 24.1 99.01     Mostly Cloudy
20:00 9.2 2.0 61   9 13 24.1 99.04     LegendNANA
21:00 6.9 0.9 65   9 7 24.1 99.05     LegendNANA
22:00 6.3 0.0 64   1 4 24.1 99.07     Mainly Clear
23:00 5.5 1.6 76   31 3 24.1 99.04     LegendNANA

Notes on Data Quality.

Legend

  • E = Estimated
  • M = Missing
  • NA = Not Available*
  • [empty] = Indicates an unobserved value
Date modified: